星链-32454 (STARLINK-32454)

导读 | 豆包AI

STARLINK-32454是美国SpaceX公司星链(Starlink)卫星互联网星座的组网卫星,于2024年11月30日发射入轨,归属第二代星链卫星星座。 星链星座旨在为全球偏远地区提供低延迟高速宽带服务,单星质量多在200多千克,设计寿命约5年,搭载氪离子推进、自主碰撞规避和星间激光链路技术,属于近地轨道通信卫星。

基本信息
目录编号:
62142
目录名称:
STARLINK-32454
国际标识:
2024-224D
轨道中心:
EARTH
卫星名称:
星链-32454
卫星全名:
星链-32454 (STARLINK-32454)
卫星状态:
在轨 (已飞行517 天)
发射日期:
2024-11-30 UTC
国别 :
美国 (US)
星等 :
--
轨道信息
数据来源 国际轨道数据 AOE轨道数据
星历时间 2026-04-30T16:23:15+0800
18小时前
查看轨道信息
2026-04-27T08:00:00+0800
4天前
查看轨道信息
半长轴 6861.198km 6861.22km
偏心率 0.0001295 0.0001915
轨道倾角 42.998° 42.998°
近地点辐角 290.565° 281.997°
升交点赤经 233.884° 252.805°
平近点角 69.506° 356.763°
近地点 482.172km 481.769km
远地点 483.95km 484.397km
周期 94.267分钟 94.267分钟
每日圈数 15.275761 15.275688
详细信息
固有亮度:
5
最大亮度:
2.5
卫星平台:
Starlink V1.0
覆盖范围:
全球
运营商:
太空探索技术公司
运营商所在国:
美国
制造商(研发单位):
太空探索技术公司
制造商所在国:
美国
使用方式:
暂无
卫星简介
Starlink 计划是 SpaceX 推出的全球卫星互联网项目,通过发射低轨道卫星,为全球尤其是偏远地区提供高速、低延迟的互联网服务。自 2019 年起,Starlink 已部署数千颗卫星,旨在缩小全球数字鸿沟,推动互联网普及。该项目还为军事、航空等行业提供通信支持,带来广泛经济效益。
2D轨道图
3D轨道图
轨道高度分析图
轨道倾角分析图
轨道综合分析图
查看轨道综合分析图